Retour au catalogue

THOR ABLESTAR DEB

ActifLEO
NORAD 13514·DEBRIS·🇺🇸 United States

Lancé Jun 29, 1961 depuis Cape Canaveral Space Force Station

Loading…

Prochains Passages (prochaines 24 heures)

TLE

FraisSource: Space-Track

Époque: Sep 14, 2026, 04:39 UTC

1 13514U 61015KX  26257.19434208  .00000193  00000-0  33600-3 0  9998
2 13514  66.7151 181.4481 0244739 330.9488  96.9066 13.51370830276599

Suivez THOR ABLESTAR DEB en temps réel avec AllMySat

Download on the App Store